When you browse on this site, cookies collect data to enhance your experience and personalize the content and advertising you see.
Visit our Privacy Policy to learn more. By continuing to use the site, you agree to this use of cookies and data.
  • Em Portugal
  • Lista de países
  • Para 7 dias
  • Temperatura da água
  • Mapa do tempo
  • Widgets de tempo
  • user-avatar
    Iniciar Sessão

    Previsão horária em Majadahonda

    Hoje, 17 Novembro, Domingo

    Tempo Temperatura Precipitação Vento Pressão Humidade
    00:00 +3°C° 0 mm 3 m/s 698 mmHg 71%
    01:00 +3°C° 0 mm 3 m/s 698 mmHg 72%
    02:00 +3°C° 0 mm 2 m/s 698 mmHg 73%
    03:00 +3°C° 0 mm 2 m/s 697 mmHg 74%
    04:00 +3°C° 0 mm 2 m/s 697 mmHg 74%
    05:00 +3°C° 0 mm 2 m/s 697 mmHg 75%
    06:00 +3°C° 0 mm 2 m/s 697 mmHg 75%
    07:00 +3°C° 0 mm 2 m/s 697 mmHg 73%
    08:00 +3°C° 0 mm 3 m/s 696 mmHg 72%
    09:00 +4°C° 0 mm 4 m/s 696 mmHg 70%
    10:00 +4°C° 0.6 mm 4 m/s 696 mmHg 75%
    11:00 +4°C° 0.6 mm 4 m/s 695 mmHg 80%
    12:00 +4°C° 0.6 mm 4 m/s 695 mmHg 85%
    13:00 +5°C° 0.2 mm 4 m/s 695 mmHg 85%
    14:00 +5°C° 0.2 mm 5 m/s 694 mmHg 85%
    15:00 +6°C° 0.2 mm 5 m/s 694 mmHg 85%
    16:00 +6°C° 0.4 mm 5 m/s 694 mmHg 88%
    17:00 +6°C° 0.4 mm 4 m/s 694 mmHg 90%
    18:00 +6°C° 0.4 mm 4 m/s 694 mmHg 92%
    19:00 +5°C° 0.3 mm 4 m/s 694 mmHg 86%
    20:00 +5°C° 0.3 mm 4 m/s 694 mmHg 80%
    21:00 +5°C° 0.3 mm 4 m/s 694 mmHg 74%
    22:00 +4°C° 0 mm 4 m/s 694 mmHg 74%
    23:00 +4°C° 0 mm 4 m/s 694 mmHg 74%

    Amanhã, 18 Novembro, Segunda-feira

    Tempo Temperatura Precipitação Vento Pressão Humidade
    00:00 +3°C° 0 mm 4 m/s 694 mmHg 74%
    01:00 +3°C° 0 mm 4 m/s 694 mmHg 75%
    02:00 +3°C° 0 mm 4 m/s 694 mmHg 76%
    03:00 +3°C° 0 mm 4 m/s 695 mmHg 78%
    04:00 +3°C° 0 mm 3 m/s 695 mmHg 79%
    05:00 +3°C° 0 mm 3 m/s 695 mmHg 81%
    06:00 +3°C° 0 mm 3 m/s 695 mmHg 82%
    07:00 +4°C° 0 mm 2 m/s 696 mmHg 79%
    08:00 +5°C° 0 mm 2 m/s 696 mmHg 75%
    09:00 +6°C° 0 mm 2 m/s 697 mmHg 72%
    10:00 +7°C° 0 mm 2 m/s 697 mmHg 66%
    11:00 +8°C° 0 mm 2 m/s 697 mmHg 60%
    12:00 +9°C° 0 mm 3 m/s 697 mmHg 54%
    13:00 +9°C° 0 mm 3 m/s 697 mmHg 54%
    14:00 +9°C° 0 mm 3 m/s 697 mmHg 54%
    15:00 +8°C° 0 mm 4 m/s 697 mmHg 54%
    16:00 +8°C° 0 mm 3 m/s 697 mmHg 58%
    17:00 +7°C° 0 mm 3 m/s 697 mmHg 63%
    18:00 +5°C° 0 mm 3 m/s 697 mmHg 68%
    19:00 +5°C° 0 mm 2 m/s 698 mmHg 69%
    20:00 +5°C° 0 mm 2 m/s 698 mmHg 70%
    21:00 +6°C° 0 mm 1 m/s 699 mmHg 72%
    22:00 +5°C° 0 mm 1 m/s 698 mmHg 73%
    23:00 +5°C° 0 mm 1 m/s 698 mmHg 74%

    Depois de amanhã, 19 Novembro, Terça-feira

    Tempo Temperatura Precipitação Vento Pressão Humidade
    00:00 +5°C° 0 mm 1 m/s 698 mmHg 74%
    01:00 +4°C° 0 mm 1 m/s 698 mmHg 75%
    02:00 +4°C° 0 mm 1 m/s 698 mmHg 76%
    03:00 +3°C° 0 mm 0 m/s 698 mmHg 77%
    04:00 +3°C° 0 mm 0 m/s 698 mmHg 77%
    05:00 +3°C° 0 mm 0 m/s 698 mmHg 78%
    06:00 +3°C° 0 mm 0 m/s 698 mmHg 78%
    07:00 +3°C° 0 mm 0 m/s 698 mmHg 74%
    08:00 +4°C° 0 mm 0 m/s 699 mmHg 70%
    09:00 +5°C° 0 mm 0 m/s 699 mmHg 66%
    10:00 +7°C° 0 mm 1 m/s 699 mmHg 64%
    11:00 +8°C° 0 mm 1 m/s 698 mmHg 62%
    12:00 +8°C° 0 mm 2 m/s 698 mmHg 59%
    13:00 +8°C° 0 mm 2 m/s 697 mmHg 58%
    14:00 +8°C° 0 mm 2 m/s 697 mmHg 58%
    15:00 +9°C° 0 mm 2 m/s 697 mmHg 57%
    16:00 +8°C° 0 mm 2 m/s 697 mmHg 61%
    17:00 +7°C° 0 mm 2 m/s 697 mmHg 65%
    18:00 +7°C° 0 mm 1 m/s 697 mmHg 69%
    19:00 +7°C° 0 mm 1 m/s 697 mmHg 70%
    20:00 +6°C° 0 mm 1 m/s 697 mmHg 71%
    21:00 +6°C° 0 mm 1 m/s 697 mmHg 72%
    22:00 +6°C° 0 mm 1 m/s 696 mmHg 74%
    23:00 +5°C° 0 mm 1 m/s 696 mmHg 76%

    20 Novembro, Quarta-feira

    Tempo Temperatura Precipitação Vento Pressão Humidade
    00:00 +5°C° 0 mm 1 m/s 696 mmHg 78%
    01:00 +5°C° 0.1 mm 1 m/s 695 mmHg 78%
    02:00 +5°C° 0.1 mm 1 m/s 695 mmHg 78%
    03:00 +5°C° 0.1 mm 0 m/s 695 mmHg 78%
    04:00 +6°C° 0.1 mm 1 m/s 695 mmHg 79%
    05:00 +6°C° 0.1 mm 1 m/s 694 mmHg 80%
    06:00 +6°C° 0.1 mm 1 m/s 694 mmHg 81%
    07:00 +5°C° 0.3 mm 2 m/s 694 mmHg 84%
    08:00 +5°C° 0.3 mm 2 m/s 694 mmHg 86%
    09:00 +5°C° 0.3 mm 2 m/s 694 mmHg 89%
    10:00 +4°C° 0.2 mm 3 m/s 694 mmHg 89%
    11:00 +4°C° 0.2 mm 3 m/s 693 mmHg 88%
    12:00 +5°C° 0.2 mm 3 m/s 693 mmHg 88%
    13:00 +5°C° 0.2 mm 3 m/s 693 mmHg 87%
    14:00 +5°C° 0.2 mm 3 m/s 692 mmHg 86%
    15:00 +7°C° 0.2 mm 3 m/s 692 mmHg 84%
    16:00 +7°C° 0.2 mm 3 m/s 692 mmHg 86%
    17:00 +7°C° 0.2 mm 3 m/s 692 mmHg 88%
    18:00 +7°C° 0.2 mm 3 m/s 691 mmHg 90%
    19:00 +6°C° 1 mm 4 m/s 691 mmHg 91%
    20:00 +6°C° 1 mm 5 m/s 691 mmHg 92%
    21:00 +6°C° 1 mm 5 m/s 691 mmHg 93%
    22:00 +6°C° 1 mm 5 m/s 691 mmHg 92%
    23:00 +6°C° 1 mm 5 m/s 691 mmHg 91%

    21 Novembro, Quinta-feira

    Tempo Temperatura Precipitação Vento Pressão Humidade
    00:00 +6°C° 1 mm 5 m/s 691 mmHg 90%
    01:00 +6°C° 0.1 mm 5 m/s 691 mmHg 91%
    02:00 +5°C° 0.1 mm 4 m/s 690 mmHg 92%
    03:00 +5°C° 0.1 mm 4 m/s 690 mmHg 93%
    04:00 +5°C° 0.2 mm 4 m/s 690 mmHg 92%
    05:00 +5°C° 0.2 mm 4 m/s 690 mmHg 91%
    06:00 +5°C° 0.2 mm 4 m/s 690 mmHg 91%
    07:00 +6°C° 0 mm 4 m/s 690 mmHg 90%
    08:00 +6°C° 0 mm 5 m/s 691 mmHg 89%
    09:00 +6°C° 0 mm 5 m/s 691 mmHg 88%
    10:00 +7°C° 0 mm 5 m/s 691 mmHg 83%
    11:00 +7°C° 0 mm 5 m/s 691 mmHg 78%
    12:00 +8°C° 0 mm 5 m/s 691 mmHg 73%
    13:00 +8°C° 0.1 mm 5 m/s 690 mmHg 76%
    14:00 +8°C° 0.1 mm 4 m/s 690 mmHg 79%
    15:00 +7°C° 0.1 mm 4 m/s 689 mmHg 83%
    16:00 +8°C° 0.1 mm 3 m/s 689 mmHg 85%
    17:00 +8°C° 0.1 mm 3 m/s 690 mmHg 88%
    18:00 +7°C° 0.1 mm 3 m/s 690 mmHg 90%
    19:00 +7°C° 0 mm 3 m/s 690 mmHg 90%
    20:00 +7°C° 0 mm 3 m/s 690 mmHg 90%
    21:00 +7°C° 0 mm 3 m/s 690 mmHg 91%
    22:00 +5°C° 0 mm 3 m/s 691 mmHg 91%
    23:00 +5°C° 0 mm 3 m/s 691 mmHg 91%

    22 Novembro, Sexta-feira

    Tempo Temperatura Precipitação Vento Pressão Humidade
    00:00 +5°C° 0 mm 3 m/s 691 mmHg 92%
    01:00 +4°C° 0 mm 3 m/s 691 mmHg 91%
    02:00 +4°C° 0 mm 3 m/s 691 mmHg 90%
    03:00 +5°C° 0 mm 2 m/s 691 mmHg 90%
    04:00 +5°C° 0 mm 2 m/s 691 mmHg 89%
    05:00 +5°C° 0 mm 2 m/s 691 mmHg 89%
    06:00 +5°C° 0 mm 2 m/s 691 mmHg 89%
    07:00 +5°C° 0 mm 2 m/s 692 mmHg 86%
    08:00 +5°C° 0 mm 2 m/s 692 mmHg 83%
    09:00 +6°C° 0 mm 2 m/s 693 mmHg 80%
    10:00 +7°C° 0 mm 2 m/s 693 mmHg 73%
    11:00 +8°C° 0 mm 2 m/s 693 mmHg 67%
    12:00 +9°C° 0 mm 3 m/s 693 mmHg 60%
    13:00 +9°C° 0 mm 3 m/s 692 mmHg 60%
    14:00 +9°C° 0 mm 3 m/s 692 mmHg 61%
    15:00 +9°C° 0 mm 3 m/s 692 mmHg 61%
    16:00 +8°C° 0 mm 2 m/s 692 mmHg 67%
    17:00 +7°C° 0 mm 2 m/s 692 mmHg 72%
    18:00 +6°C° 0 mm 2 m/s 693 mmHg 78%
    19:00 +6°C° 0 mm 2 m/s 693 mmHg 79%
    20:00 +6°C° 0 mm 2 m/s 694 mmHg 80%
    21:00 +6°C° 0 mm 1 m/s 694 mmHg 80%
    22:00 +6°C° 0 mm 1 m/s 694 mmHg 81%
    23:00 +6°C° 0 mm 1 m/s 694 mmHg 81%
    Mostrar mais